Welcome to the New NWS' Forecast!
Most changes are behind the scenes, but click here for differences you might notice.

Regional Weather Roundup (RWR)

Issued by National Weather Service (NWS)

                            
438 
ASUS45 KTFX 150410
RWRMT 
MONTANA REGIONAL WEATHER ROUNDUP
NATIONAL WEATHER SERVICE GREAT FALLS MT
1000 PM MDT TUE AUG 14 2018

NOTE: "FAIR" INDICATES FEW OR NO CLOUDS BELOW 12000 FEET WITH NO
SIGNIFICANT WEATHER AND/OR OBSTRUCTIONS TO VISIBILITY.

MTZ001>007-043-150500-
WEST OF THE DIVIDE
  
CITY           SKY/WX    TMP DP  RH WIND       PRES   REMARKS
KALISPELL      CLOUDY    59  47  64 CALM      29.93R SMOKE            
MISSOULA       FAIR      70  41  34 N6        29.94R                  
BUTTE          FAIR      62  33  33 VRB6      30.09R                  
MULLAN PASS    FAIR      61  29  29 NW5       30.14R                  
ANACONDA         N/A     63  30  29 SW6       30.05S                  
DEER LODGE       N/A     63  36  36 W6        30.05R                  
LIBBY            N/A     70  39  32 S6        29.91R                  
PLAINS           N/A     70  41  34 CALM      29.94R                  
$$

MTZ008-052>055-150500-
SOUTHWEST MONTANA
  
CITY           SKY/WX    TMP DP  RH WIND       PRES   REMARKS
BOZEMAN        FAIR      65  42  43 SE6       30.02R                  
DILLON         FAIR      64  37  36 CALM      30.04R                  
ENNIS          CLEAR     59  32  36 CALM      30.10R                  
W YELLOWSTONE  FAIR      50  32  50 CALM      30.14R                  
THREE FORKS      N/A     61  45  55 CALM      30.00R                  
TWIN BRIDGES     N/A     72  35  25 N7        30.02R                  
$$

MTZ009-010-012-014-046-048-049-054-150500-
EAST SLOPES AND CENTRAL MONTANA
  
CITY           SKY/WX    TMP DP  RH WIND       PRES   REMARKS
CUT BANK       FAIR      67  35  30 W9        29.95R HAZE             
GREAT FALLS    FAIR      68  31  25 SE7       29.94S                  
MALMSTROM AFB  FAIR      63  33  32 S7        29.93S                  
HELENA         FAIR      70  32  24 W8        29.95F                  
BOWMANS CRNR   FAIR      71  26  18 E8        29.96S                  
CHOTEAU          N/A     66  39  37 NW5       29.99R                  
RAYNESFORD     FAIR      59  32  35 NE10      29.98S                  
ULM            FAIR      63  30  29 SE6       29.94S                  
$$

MTZ011-013-016-021-045-047-050-051-150500-
NORTH CENTRAL MONTANA
  
CITY           SKY/WX    TMP DP  RH WIND       PRES   REMARKS
HAVRE          FAIR      67  40  37 SE5       29.88S                  
LEWISTOWN      FAIR      58  40  51 S8        30.00R                  
N BAR RANCH    FAIR      61  45  55 VRB5      30.06R                  
CHINOOK          N/A     70  52  52 CALM      29.88S                  
DENTON         FAIR      68  34  29 CALM      29.93S                  
GEYSER         FAIR      62  23  22 S3        29.98S                  
GRASS RANGE    FAIR      64  47  55 SW10      29.96R                  
JUDITH GAP     FAIR      63  46  53 SE13      30.04R                  
ROY            FAIR      66  47  49 S13       29.96R                  
STANFORD       FAIR      56  28  35 CALM      30.01S                  
WINIFRED       MOCLDY    67  35  30 E5        29.96R                  
$$

MTZ017>020-022>027-061-062-150500-
NORTHEAST MONTANA
  
CITY           SKY/WX    TMP DP  RH WIND       PRES   REMARKS
GLASGOW        FAIR      72  53  51 SE9       29.91R                  
GLENDIVE       FAIR      66  48  52 CALM      29.97R                  
JORDAN           N/A     66  48  52 S8        29.95R                  
MALTA          CLEAR     68  48  49 NE5       29.87S                  
SIDNEY         FAIR      68  49  50 SW3       29.95R                  
WOLF POINT     FAIR      72  48  42 S6        29.92S                  
SCOBEY           N/A     65  41  41 CALM      29.93S                  
$$

MTZ028>42-056>058-150500-
SOUTHCENTRAL AND SOUTHEAST MONTANA
  
CITY           SKY/WX    TMP DP  RH WIND       PRES   REMARKS
BAKER          FAIR      64  46  52 SE10      30.00S                  
BILLINGS       FAIR      65  52  62 E6        30.00R                  
LIVINGSTON     FAIR      61  37  41 S3        30.02R                  
MILES CITY     FAIR      65  53  65 NW3       29.95S                  
BIG TIMBER     CLEAR     66  52  59 E10G16    30.04R                  
EKALAKA          N/A     64  52  65 E12       29.99R                  
HARLOWTON      FAIR      65  50  59 SE8       30.03R                  
LAUREL           N/A     63  50  63 NE9       30.01R                  
$$

REGIONAL REPORTS...DAKOTAS
  
CITY           SKY/WX    TMP DP  RH WIND       PRES   REMARKS
WILLISTON      FAIR      68  53  58 SE5       29.95S                  
MINOT          FAIR      66  48  52 SE5       29.96S                  
DICKINSON      FAIR      56  46  69 SE6       30.00R                  
BEACH          CLOUDY    59  45  58 SE6       30.02S                  
CROSBY         FAIR      66  50  55 S9        29.93F                  
TIOGA          FAIR      63  50  63 S12       29.98S                  
WATFORD CITY   FAIR      70  48  46 S12       29.96S                  
BISMARCK       FAIR      59  49  69 E3        30.03R                  
GRAND FORKS    FAIR      54  50  86 CALM      30.00R                  
FARGO          FAIR      58  52  80 NE7       30.00S                  
BUFFALO SD       N/A     65  52  62 S13       30.01R                  
RAPID CITY     TSTM      61  56  83 NW9       30.12R                  
$$

REGIONAL REPORTS...WYOMING/IDAHO/WASHINGTON
  
CITY           SKY/WX    TMP DP  RH WIND       PRES   REMARKS
GILLETTE       FAIR      56  52  86 S5        30.09R                  
SHERIDAN       FAIR      56  53  90 S9        30.05S                  
BUFFALO WY     MOCLDY    61  48  62 S9        30.12R                  
CODY           FAIR      65  49  56 NW3       30.09R                  
YELLOWSTONE LA   N/A     49  30  48 CALM      30.27R                  
IDAHO FALLS    FAIR      70  39  32 SW8       29.98R                  
SALMON         FAIR      66  30  26 SE5       29.97R                  
BOISE          FAIR      79  45  29 CALM      29.88R                  
SPOKANE        CLOUDY    77  36  22 S5        29.91S HAZE             
$$

REGIONAL REPORTS...ALBERTA
  
CITY           SKY/WX    TMP DP  RH WIND       PRES   REMARKS
CALGARY        PTCLDY    77  43  29 W6        29.88R                  
CARDSTON         N/A     66  39  37 SW8         N/A                   
FORT MCMURRAY  PTCLDY    68  54  60 S7        29.57S                  
HIGH LEVEL     PTCLDY    63  54  72 CALM      29.57S                  
LETHBRIDGE     PTCLDY    63  41  45 S12       29.87S                  
LLOYDMINSTER   MOCLDY    61  54  77 SW8       29.76S SMOKE            
MEDICINE HAT   CLEAR     64  48  55 SW3       29.85R                  
MILK RIVER       N/A     59  43  55 N2          N/A                   
ONEFOUR          N/A     68  32  26 E6          N/A                   
PEACE RIVER    MOCLDY    72  48  43 W12       29.65R                  
PINCHER CREEK  CLEAR     68  39  34 SW12      29.93R                  
WATERTON GATE    N/A     70  37  30 SW13G20     N/A                   
$$

REGIONAL REPORTS...SASKATCHEWAN
  
CITY           SKY/WX    TMP DP  RH WIND       PRES   REMARKS
CORONACH         N/A     63  43  48 S6          N/A                   
CYPRESS HILLS    N/A     64  32  29 S3          N/A                   
ESTEVAN        PTCLDY    59  48  67 S8        29.92F                  
MOOSE JAW        N/A     55  41  58 S7          N/A                   
PRINCE ALBERT  CLEAR     66  50  55 W5        29.75S                  
REGINA         CLEAR     66  46  48 SE8       29.87S                  
SASKATOON      PTCLDY    70  45  40 S15       29.78S                  
SWIFT CURRENT  CLEAR     64  37  36 S10       29.87S                  
VAL MARIE        N/A     57  32  38 NW1         N/A                   
$$